User: anonymous   Login
Location: Theydon Bois
(51.6750°N, 0.1050°E)
Time: 20:48:42
(UTC+01:00)
Language:

Cosmos 1766 - Orbit

View from above orbital plane
View from above orbital plane
View from above satellite
View from above satellite

Ground track
Ground track

The orbit data is extracted from the following two-line orbital elements,

1 16881U 86055A   17292.93688681 +.00001149 +00000-0 +68161-4 0  9999
2 16881 082.5022 261.6271 0018356 036.5414 323.7064 15.10255514679103
Epoch (UTC): 19 October 2017 22:29:07
Eccentricity: 0.0018356
inclination: 82.5022°
perigee height: 523 km
apogee height: 548 km
right ascension of ascending node: 261.6271°
argument of perigee: 36.5414°
revolutions per day: 15.10255514
mean anomaly at epoch: 323.7064°
orbit number at epoch: 67910

The dashed part of the orbit path shows where the satellite is in the earth's shadow,  

DLR